Time,TemperatureF,DewpointF,PressureIn,WindDirection,WindDirectionDegrees,WindSpeedMPH,WindSpeedGustMPH,Humidity,HourlyPrecipIn,Conditions,Clouds,dailyrainin,SoftwareType,DateUTC
2013-01-25 00:13:00,56.4,53.0,30.23,East,86,0.0,0.0,89,0.00,,,0.00,weatherlink.com 1.10,2013-01-25 05:13:00,
2013-01-25 00:28:00,55.9,53.0,30.23,East,86,0.0,0.0,90,0.00,,,0.00,weatherlink.com 1.10,2013-01-25 05:28:00,
2013-01-25 00:43:00,55.3,53.0,30.23,East,86,0.0,0.0,91,0.00,,,0.00,weatherlink.com 1.10,2013-01-25 05:43:00,
2013-01-25 00:58:00,54.8,53.0,30.23,East,86,0.0,0.0,92,0.00,,,0.00,weatherlink.com 1.10,2013-01-25 05:58:00,
2013-01-25 01:28:00,54.2,53.0,30.23,East,86,0.0,0.0,94,0.00,,,0.00,weatherlink.com 1.10,2013-01-25 06:28:00,
2013-01-25 01:43:00,53.8,52.0,30.22,East,86,0.0,0.0,94,0.00,,,0.00,weatherlink.com 1.10,2013-01-25 06:43:00,
2013-01-25 01:58:00,54.4,53.0,30.22,East,86,0.0,0.0,95,0.00,,,0.00,weatherlink.com 1.10,2013-01-25 06:58:00,
2013-01-25 02:13:00,54.5,53.0,30.22,East,86,0.0,0.0,95,0.00,,,0.00,weatherlink.com 1.10,2013-01-25 07:13:00,
2013-01-25 02:28:00,54.6,54.0,30.22,East,86,0.0,1.0,96,0.00,,,0.00,weatherlink.com 1.10,2013-01-25 07:28:00,
2013-01-25 02:43:00,54.8,53.0,30.22,East,86,0.0,0.0,94,0.00,,,0.00,weatherlink.com 1.10,2013-01-25 07:43:00,
2013-01-25 02:58:00,54.8,53.0,30.21,East,86,0.0,0.0,95,0.00,,,0.00,weatherlink.com 1.10,2013-01-25 07:58:00,
2013-01-25 03:13:00,55.5,54.0,30.21,WNW,300,0.0,1.0,93,0.00,,,0.00,weatherlink.com 1.10,2013-01-25 08:13:00,
2013-01-25 03:28:00,56.2,53.0,30.21,NNW,347,0.0,1.0,90,0.00,,,0.00,weatherlink.com 1.10,2013-01-25 08:28:00,
2013-01-25 03:43:00,56.6,54.0,30.21,NW,305,0.0,1.0,89,0.00,,,0.00,weatherlink.com 1.10,2013-01-25 08:43:00,
2013-01-25 03:58:00,56.5,53.0,30.21,NW,309,0.0,1.0,89,0.00,,,0.00,weatherlink.com 1.10,2013-01-25 08:58:00,
2013-01-25 04:13:00,56.6,54.0,30.21,NW,307,0.0,0.0,89,0.00,,,0.00,weatherlink.com 1.10,2013-01-25 09:13:00,
2013-01-25 04:28:00,56.5,53.0,30.21,NNW,333,0.0,1.0,88,0.00,,,0.00,weatherlink.com 1.10,2013-01-25 09:28:00,
2013-01-25 04:43:00,56.5,53.0,30.20,NW,311,0.0,1.0,88,0.00,,,0.00,weatherlink.com 1.10,2013-01-25 09:43:00,
2013-01-25 04:58:00,56.5,53.0,30.21,NNW,338,0.0,2.0,88,0.00,,,0.00,weatherlink.com 1.10,2013-01-25 09:58:00,
2013-01-25 05:13:00,56.1,53.0,30.21,NNW,339,1.0,1.0,88,0.00,,,0.00,weatherlink.com 1.10,2013-01-25 10:13:00,
2013-01-25 05:28:00,55.8,52.0,30.21,NW,321,0.0,0.0,88,0.00,,,0.00,weatherlink.com 1.10,2013-01-25 10:28:00,
2013-01-25 05:43:00,55.1,52.0,30.21,NW,314,0.0,0.0,89,0.00,,,0.00,weatherlink.com 1.10,2013-01-25 10:43:00,
2013-01-25 05:58:00,54.5,52.0,30.22,NW,315,0.0,0.0,91,0.00,,,0.00,weatherlink.com 1.10,2013-01-25 10:58:00,
2013-01-25 06:13:00,53.9,52.0,30.22,NW,315,0.0,0.0,92,0.00,,,0.00,weatherlink.com 1.10,2013-01-25 11:13:00,
2013-01-25 06:28:00,53.1,51.0,30.22,NW,315,0.0,0.0,93,0.00,,,0.00,weatherlink.com 1.10,2013-01-25 11:28:00,
2013-01-25 06:44:00,52.8,51.0,30.23,NW,315,0.0,0.0,93,0.00,,,0.00,weatherlink.com 1.10,2013-01-25 11:44:00,
2013-01-25 06:59:00,53.4,52.0,30.23,NW,315,0.0,0.0,94,0.00,,,0.00,weatherlink.com 1.10,2013-01-25 11:59:00,
2013-01-25 07:14:00,54.1,53.0,30.23,NW,315,0.0,0.0,94,0.00,,,0.00,weatherlink.com 1.10,2013-01-25 12:14:00,
2013-01-25 07:29:00,54.5,52.0,30.24,NW,315,0.0,0.0,92,0.00,,,0.00,weatherlink.com 1.10,2013-01-25 12:29:00,
2013-01-25 07:44:00,54.9,53.0,30.24,NNW,344,0.0,0.0,92,0.00,,,0.00,weatherlink.com 1.10,2013-01-25 12:44:00,
2013-01-25 07:59:00,57.6,54.0,30.24,NE,40,0.0,1.0,87,0.00,,,0.00,weatherlink.com 1.10,2013-01-25 12:59:00,
2013-01-25 08:14:00,60.2,54.0,30.24,NE,44,0.0,1.0,79,0.00,,,0.00,weatherlink.com 1.10,2013-01-25 13:14:00,
2013-01-25 08:29:00,61.0,54.0,30.25,ENE,68,0.0,3.0,77,0.00,,,0.00,weatherlink.com 1.10,2013-01-25 13:29:00,
2013-01-25 08:44:00,62.7,54.0,30.25,NNW,347,0.0,1.0,74,0.00,,,0.00,weatherlink.com 1.10,2013-01-25 13:44:00,
2013-01-25 08:59:00,64.5,55.0,30.25,WNW,294,0.0,2.0,71,0.00,,,0.00,weatherlink.com 1.10,2013-01-25 13:59:00,
2013-01-25 09:14:00,66.3,55.0,30.26,NNW,345,3.0,3.0,68,0.00,,,0.00,weatherlink.com 1.10,2013-01-25 14:14:00,
2013-01-25 09:29:00,67.1,56.0,30.26,NE,37,0.0,2.0,67,0.00,,,0.00,weatherlink.com 1.10,2013-01-25 14:29:00,
2013-01-25 09:44:00,68.2,56.0,30.27,ENE,69,0.0,3.0,65,0.00,,,0.00,weatherlink.com 1.10,2013-01-25 14:44:00,
2013-01-25 09:59:00,69.6,55.0,30.27,ESE,108,1.0,4.0,60,0.00,,,0.00,weatherlink.com 1.10,2013-01-25 14:59:00,
2013-01-25 10:14:00,70.1,54.0,30.27,ENE,68,4.0,6.0,57,0.00,,,0.00,weatherlink.com 1.10,2013-01-25 15:14:00,
2013-01-25 10:29:00,70.5,56.0,30.27,East,86,0.0,4.0,61,0.00,,,0.00,weatherlink.com 1.10,2013-01-25 15:29:00,
2013-01-25 10:44:00,71.4,56.0,30.27,NW,312,0.0,5.0,58,0.00,,,0.00,weatherlink.com 1.10,2013-01-25 15:44:00,
2013-01-25 10:59:00,72.4,57.0,30.26,NE,48,0.0,3.0,59,0.00,,,0.00,weatherlink.com 1.10,2013-01-25 15:59:00,
2013-01-25 11:14:00,74.2,58.0,30.25,ENE,58,0.0,2.0,57,0.00,,,0.00,weatherlink.com 1.10,2013-01-25 16:14:00,
2013-01-25 11:29:00,75.1,58.0,30.25,ENE,65,0.0,4.0,56,0.00,,,0.00,weatherlink.com 1.10,2013-01-25 16:29:00,
2013-01-25 11:44:00,75.0,58.0,30.24,ESE,110,2.0,4.0,56,0.00,,,0.00,weatherlink.com 1.10,2013-01-25 16:44:00,
2013-01-25 11:59:00,75.0,59.0,30.23,ENE,71,3.0,4.0,57,0.00,,,0.00,weatherlink.com 1.10,2013-01-25 16:59:00,
2013-01-25 12:14:00,75.2,58.0,30.23,East,96,2.0,5.0,56,0.00,,,0.00,weatherlink.com 1.10,2013-01-25 17:14:00,
2013-01-25 12:29:00,74.5,59.0,30.22,ENE,64,0.0,5.0,58,0.00,,,0.00,weatherlink.com 1.10,2013-01-25 17:29:00,
2013-01-25 12:44:00,74.5,58.0,30.21,North,9,2.0,6.0,57,0.00,,,0.00,weatherlink.com 1.10,2013-01-25 17:44:00,
2013-01-25 12:59:00,74.6,60.0,30.20,SE,125,5.0,5.0,60,0.00,,,0.00,weatherlink.com 1.10,2013-01-25 17:59:00,
2013-01-25 13:14:00,75.0,59.0,30.19,ENE,60,5.0,8.0,58,0.00,,,0.00,weatherlink.com 1.10,2013-01-25 18:14:00,
2013-01-25 13:29:00,75.3,59.0,30.19,East,98,0.0,8.0,58,0.00,,,0.00,weatherlink.com 1.10,2013-01-25 18:29:00,
2013-01-25 13:44:00,75.7,58.0,30.18,SE,126,1.0,6.0,54,0.00,,,0.00,weatherlink.com 1.10,2013-01-25 18:44:00,
2013-01-25 13:59:00,76.1,59.0,30.18,SE,124,2.0,6.0,56,0.00,,,0.00,weatherlink.com 1.10,2013-01-25 18:59:00,
2013-01-25 14:14:00,75.0,59.0,30.18,ENE,74,3.0,5.0,57,0.00,,,0.00,weatherlink.com 1.10,2013-01-25 19:14:00,
2013-01-25 14:29:00,75.6,57.0,30.17,SE,125,3.0,6.0,53,0.00,,,0.00,weatherlink.com 1.10,2013-01-25 19:29:00,
2013-01-25 14:44:00,75.7,58.0,30.16,ESE,121,3.0,5.0,55,0.00,,,0.00,weatherlink.com 1.10,2013-01-25 19:44:00,
2013-01-25 14:59:00,76.3,57.0,30.16,ENE,71,0.0,6.0,52,0.00,,,0.00,weatherlink.com 1.10,2013-01-25 19:59:00,
2013-01-25 15:14:00,75.5,56.0,30.16,East,85,0.0,5.0,51,0.00,,,0.00,weatherlink.com 1.10,2013-01-25 20:14:00,
2013-01-25 15:29:00,75.5,57.0,30.16,ESE,115,0.0,3.0,52,0.00,,,0.00,weatherlink.com 1.10,2013-01-25 20:29:00,
2013-01-25 15:59:00,75.9,57.0,30.16,ESE,107,0.0,6.0,53,0.00,,,0.00,weatherlink.com 1.10,2013-01-25 20:59:00,
2013-01-25 16:14:00,75.5,58.0,30.16,East,99,0.0,5.0,55,0.00,,,0.00,weatherlink.com 1.10,2013-01-25 21:14:00,
2013-01-25 16:29:00,75.2,57.0,30.16,East,96,2.0,4.0,54,0.00,,,0.00,weatherlink.com 1.10,2013-01-25 21:29:00,
2013-01-25 16:44:00,75.0,57.0,30.17,SE,126,0.0,1.0,54,0.00,,,0.00,weatherlink.com 1.10,2013-01-25 21:44:00,
2013-01-25 17:00:00,74.8,57.0,30.17,ESE,113,1.0,3.0,54,0.00,,,0.00,weatherlink.com 1.10,2013-01-25 22:00:00,
2013-01-25 17:14:00,73.9,58.0,30.17,East,96,0.0,2.0,58,0.00,,,0.00,weatherlink.com 1.10,2013-01-25 22:14:00,
2013-01-25 17:30:00,72.8,57.0,30.17,ESE,113,0.0,1.0,59,0.00,,,0.00,weatherlink.com 1.10,2013-01-25 22:30:00,
2013-01-25 17:45:00,72.3,58.0,30.17,ESE,117,0.0,1.0,61,0.00,,,0.00,weatherlink.com 1.10,2013-01-25 22:45:00,
2013-01-25 18:00:00,71.6,58.0,30.17,ESE,105,0.0,1.0,63,0.00,,,0.00,weatherlink.com 1.10,2013-01-25 23:00:00,
2013-01-25 18:15:00,70.8,58.0,30.18,East,97,0.0,0.0,65,0.00,,,0.00,weatherlink.com 1.10,2013-01-25 23:15:00,
2013-01-25 18:30:00,68.8,59.0,30.18,ESE,113,0.0,1.0,71,0.00,,,0.00,weatherlink.com 1.10,2013-01-25 23:30:00,
2013-01-25 18:45:00,67.1,59.0,30.18,ESE,107,0.0,0.0,74,0.00,,,0.00,weatherlink.com 1.10,2013-01-25 23:45:00,
2013-01-25 19:00:00,66.0,59.0,30.18,ESE,105,0.0,0.0,77,0.00,,,0.00,weatherlink.com 1.10,2013-01-26 00:00:00,
2013-01-25 19:15:00,65.1,58.0,30.18,ESE,106,0.0,0.0,79,0.00,,,0.00,weatherlink.com 1.10,2013-01-26 00:15:00,
2013-01-25 19:30:00,64.2,59.0,30.18,ESE,111,0.0,0.0,83,0.00,,,0.00,weatherlink.com 1.10,2013-01-26 00:30:00,
2013-01-25 19:45:00,63.4,59.0,30.18,SE,129,0.0,0.0,84,0.00,,,0.00,weatherlink.com 1.10,2013-01-26 00:45:00,
2013-01-25 20:00:00,62.1,58.0,30.18,SE,129,0.0,0.0,86,0.00,,,0.00,weatherlink.com 1.10,2013-01-26 01:00:00,
2013-01-25 20:15:00,61.9,58.0,30.18,East,95,0.0,0.0,88,0.00,,,0.00,weatherlink.com 1.10,2013-01-26 01:15:00,
2013-01-25 20:30:00,61.6,58.0,30.19,ESE,107,0.0,0.0,89,0.00,,,0.00,weatherlink.com 1.10,2013-01-26 01:30:00,
2013-01-25 20:45:00,61.2,58.0,30.19,East,95,0.0,0.0,90,0.00,,,0.00,weatherlink.com 1.10,2013-01-26 01:45:00,
2013-01-25 21:00:00,60.7,58.0,30.19,East,94,0.0,0.0,90,0.00,,,0.00,weatherlink.com 1.10,2013-01-26 02:00:00,
2013-01-25 21:15:00,60.8,59.0,30.19,East,94,0.0,0.0,92,0.00,,,0.00,weatherlink.com 1.10,2013-01-26 02:15:00,
2013-01-25 21:30:00,60.6,58.0,30.19,ESE,113,0.0,0.0,91,0.00,,,0.00,weatherlink.com 1.10,2013-01-26 02:30:00,
2013-01-25 21:45:00,60.0,58.0,30.19,ESE,113,0.0,0.0,92,0.00,,,0.00,weatherlink.com 1.10,2013-01-26 02:45:00,
2013-01-25 22:00:00,59.9,58.0,30.19,ESE,113,0.0,0.0,92,0.00,,,0.00,weatherlink.com 1.10,2013-01-26 03:00:00,
2013-01-25 22:15:00,59.5,58.0,30.19,ESE,113,0.0,0.0,93,0.00,,,0.00,weatherlink.com 1.10,2013-01-26 03:15:00,
2013-01-25 22:30:00,60.0,58.0,30.19,East,89,0.0,0.0,93,0.00,,,0.00,weatherlink.com 1.10,2013-01-26 03:30:00,
2013-01-25 22:45:00,59.3,57.0,30.20,East,89,0.0,0.0,93,0.00,,,0.00,weatherlink.com 1.10,2013-01-26 03:45:00,
2013-01-25 23:00:00,59.0,57.0,30.19,East,95,0.0,0.0,93,0.00,,,0.00,weatherlink.com 1.10,2013-01-26 04:00:00,
2013-01-25 23:15:00,59.1,57.0,30.19,ESE,107,0.0,0.0,94,0.00,,,0.00,weatherlink.com 1.10,2013-01-26 04:15:00,
2013-01-25 23:30:00,58.4,57.0,30.19,ESE,108,0.0,0.0,94,0.00,,,0.00,weatherlink.com 1.10,2013-01-26 04:30:00,
2013-01-25 23:45:00,58.6,57.0,30.19,East,98,0.0,0.0,94,0.00,,,0.00,weatherlink.com 1.10,2013-01-26 04:45:00,